Theta_e
336 336 336 335 335 334 333 332 331 330 330 329 329 328 327 327 325 325 324 323 322 324 325 325 325 324 323 322 322 322 320 318 315 312 313 315 316 314 312 312 313 316 315 313 315 315 316 316 311 308 305 304 305 303 303 305 303 302 301 301 302 303 303
336 336 335 334 334 333 332 331 330 329 329 329 328 327 326 325 324 323 322 321 321 323 324 323 323 322 322 321 321 321 318 315 313 311 312 313 312 312 311 311 311 313 311 311 313 312 315 319 316 311 307 306 306 304 302 304 303 302 302 302 303 303 303
336 336 335 334 333 332 331 330 329 329 328 327 326 325 324 324 323 321 320 320 320 321 322 322 321 320 320 320 320 320 317 315 313 313 313 313 313 313 312 311 312 312 311 310 311 311 311 314 316 312 308 307 309 308 307 307 305 304 303 303 303 304 304
336 335 334 333 332 331 330 329 329 328 327 326 325 324 324 323 321 320 319 318 318 319 319 319 318 317 316 316 317 317 316 315 314 313 313 313 312 312 312 312 311 310 310 310 309 310 309 310 314 313 309 308 309 309 310 310 306 305 305 304 303 304 304
336 335 334 333 332 330 330 329 328 328 326 325 325 324 322 321 319 319 318 317 315 315 314 313 313 312 312 313 314 314 314 313 313 312 312 311 311 311 310 310 310 309 309 309 308 308 308 308 311 310 307 308 310 309 310 310 307 305 305 305 304 304 303
336 335 334 333 331 331 330 329 328 327 326 325 324 323 322 321 318 317 317 316 314 312 311 310 311 311 311 312 312 312 312 311 311 310 309 309 309 309 309 308 308 308 307 307 307 307 307 306 307 306 306 307 309 310 310 309 307 305 304 304 303 303 302
335 334 334 332 331 331 330 329 328 326 325 325 324 322 321 320 319 317 316 315 313 311 310 310 311 311 311 311 312 311 311 310 309 309 308 308 308 307 307 307 307 307 306 306 306 305 305 305 305 305 307 308 308 307 307 308 307 304 303 303 302 302 302
335 334 333 332 331 330 329 328 327 326 325 324 324 323 321 320 318 317 316 315 312 310 310 310 310 310 310 310 310 310 310 309 308 308 308 307 307 306 306 305 305 305 305 305 305 305 304 305 305 304 306 312 314 309 306 307 306 304 304 303 302 302 302
335 334 333 331 330 330 329 328 327 326 325 324 323 323 321 319 318 317 315 314 311 310 309 309 309 309 308 308 308 308 308 307 307 307 307 306 305 305 304 304 305 305 304 304 304 304 304 304 305 304 303 307 313 313 311 311 308 304 305 304 302 302 302
334 333 332 331 330 329 328 327 327 326 325 324 323 322 320 319 317 316 314 312 310 309 309 309 308 308 306 306 306 306 306 306 305 305 305 305 305 304 303 303 303 303 303 303 304 304 304 304 304 304 303 302 306 310 311 314 311 305 304 303 302 303 302
334 333 332 331 330 329 328 327 326 326 324 324 323 321 319 318 316 316 313 311 309 309 309 308 307 306 305 306 306 306 306 304 304 304 304 305 305 304 303 301 301 302 303 303 304 304 304 304 303 303 305 304 303 304 305 309 310 305 303 302 302 302 302
333 332 332 331 330 329 328 327 326 325 324 323 322 320 319 317 316 314 312 310 309 309 308 307 306 306 305 306 306 306 306 304 303 304 304 304 304 303 302 303 303 303 303 303 303 304 303 303 303 303 304 304 304 303 302 303 305 304 302 302 301 301 301
333 332 331 330 330 329 328 327 326 325 323 322 321 319 318 317 315 313 311 309 309 309 308 307 307 306 305 305 305 305 305 304 303 303 304 304 305 305 305 305 305 305 304 304 304 304 304 304 304 303 304 304 303 303 302 302 303 302 302 302 301 300 300
333 332 331 330 329 328 327 327 326 324 323 321 320 319 318 316 314 313 310 309 309 308 308 307 307 306 305 306 306 305 304 303 303 304 305 305 306 306 306 305 305 304 304 304 304 304 304 304 304 303 303 303 303 303 303 302 302 302 301 301 301 300 299
333 332 330 329 328 328 327 326 325 324 322 321 320 318 317 316 314 313 310 309 308 308 308 307 306 306 305 306 306 305 304 303 304 305 305 305 305 304 305 304 304 304 304 304 303 303 304 305 304 303 303 302 302 302 302 301 301 301 301 300 300 299 299
333 331 330 329 328 327 327 325 324 324 322 320 318 318 317 316 314 312 311 309 308 308 308 307 306 307 306 306 306 306 305 303 304 305 305 304 304 304 304 303 304 305 305 304 303 302 303 304 304 304 303 302 301 301 300 300 300 300 300 300 299 299 298
332 331 330 329 328 327 326 325 324 323 322 320 318 317 316 315 314 312 310 309 308 308 307 307 307 308 306 306 307 306 305 304 304 305 304 304 304 304 304 304 305 305 305 304 303 302 302 303 303 303 302 301 300 300 299 298 298 299 299 299 298 297 297
332 330 329 328 328 327 326 325 324 323 321 319 318 317 316 315 313 312 311 309 308 308 307 307 308 307 306 306 307 306 305 305 305 304 304 304 304 304 304 305 305 305 304 303 303 302 301 302 302 301 301 300 299 298 297 297 298 298 297 297 297 296 295
331 330 329 327 327 326 325 324 323 322 320 319 318 316 316 314 313 312 311 309 309 308 307 308 308 307 306 306 307 306 306 305 304 304 304 304 304 304 304 305 305 305 305 303 303 302 300 300 301 301 300 299 296 295 295 296 296 297 297 296 296 296 296
331 329 328 327 326 325 324 323 322 321 320 318 317 316 315 314 312 311 310 309 309 308 307 308 308 306 306 307 306 306 306 305 305 304 304 304 305 304 305 305 304 304 304 303 302 301 298 298 300 300 297 295 294 295 296 297 297 298 298 298 298 298 297
330 328 327 326 325 324 322 321 320 320 319 317 316 316 315 313 312 311 310 309 309 308 307 308 307 306 307 307 306 306 306 306 305 304 304 305 304 304 305 304 304 303 303 302 301 297 294 295 296 296 295 295 297 299 299 299 299 299 299 299 299 298 298
328 327 326 325 324 322 321 320 319 319 318 316 316 315 314 313 312 311 310 309 309 308 308 307 307 307 307 306 306 306 306 306 305 304 304 304 304 304 304 304 304 302 300 298 297 294 291 293 294 294 296 298 300 300 300 300 300 300 299 299 299 299 298
327 326 325 324 323 321 320 319 319 318 316 316 315 315 314 312 311 310 310 309 309 308 307 307 307 306 305 305 306 306 306 305 305 304 305 304 304 304 304 304 303 299 295 293 293 294 295 296 297 297 298 300 300 300 300 300 301 301 299 298 299 299 298
326 325 324 323 322 321 320 318 318 317 316 315 315 314 313 312 311 310 310 309 309 308 307 307 305 304 305 306 306 306 305 305 305 305 305 304 304 304 304 304 303 300 298 295 293 295 299 299 299 299 299 300 301 301 301 301 301 301 300 299 299 299 298
325 324 323 322 322 321 319 318 317 316 315 315 315 314 313 312 311 310 309 309 308 307 307 305 303 304 306 306 306 306 306 305 305 305 305 304 304 304 304 304 304 303 303 299 295 297 300 300 299 298 297 300 302 302 302 302 302 302 302 301 300 299 298
324 323 322 322 321 320 319 317 316 315 315 315 314 313 312 312 311 310 309 309 308 307 306 304 303 305 306 305 306 306 306 306 306 305 305 305 304 304 304 305 304 304 303 301 299 300 300 299 298 296 296 300 303 302 302 302 302 303 302 301 300 299 298
324 323 322 321 320 320 318 316 315 315 315 314 313 312 312 311 311 310 309 308 308 307 306 304 304 306 305 305 306 306 306 306 306 305 305 306 305 305 305 305 305 304 303 302 302 302 301 301 298 295 297 302 302 301 302 302 302 301 300 299 298 298 298
323 322 321 321 320 319 318 316 315 314 314 314 313 312 311 311 310 309 309 308 308 307 306 305 306 305 305 306 306 306 306 306 306 306 306 306 306 306 305 305 305 304 303 303 303 303 302 303 299 295 299 303 301 301 302 302 301 299 297 297 298 298 299
322 321 321 320 320 319 317 315 314 314 314 313 312 311 311 310 310 309 308 308 307 306 306 306 306 305 305 306 306 306 307 306 306 306 306 306 306 306 305 305 305 305 304 303 303 303 303 303 299 295 298 301 300 301 302 301 300 298 297 298 299 299 300
322 321 321 320 320 319 316 314 313 313 313 312 311 310 310 309 309 309 308 307 306 306 306 306 306 305 305 306 306 306 307 306 305 306 306 306 306 306 306 305 305 304 303 303 303 302 302 303 299 295 295 297 299 301 302 300 299 298 298 299 300 300 300
322 321 320 320 320 318 315 314 313 313 312 311 310 310 310 309 309 308 307 307 307 307 307 307 306 306 305 305 305 306 306 306 305 306 306 306 306 306 305 305 305 305 303 302 303 302 302 303 299 295 293 295 297 299 299 298 298 299 300 300 300 300 300
322 321 320 320 319 317 314 313 313 312 311 310 310 309 309 308 308 308 308 308 308 307 307 307 307 307 306 306 305 305 306 306 305 306 306 306 306 305 305 305 305 304 302 302 303 302 303 302 298 294 293 294 295 296 296 296 298 299 299 300 300 301 300
321 321 320 319 318 316 314 312 312 311 310 310 309 309 308 307 307 306 307 308 308 307 307 308 308 307 307 306 305 305 305 306 305 305 305 304 304 304 304 304 305 304 302 302 302 302 302 300 296 293 293 294 294 294 295 297 298 299 299 300 300 300 300
320 320 319 319 317 314 313 312 312 311 310 309 309 308 307 306 306 306 306 306 307 307 307 308 308 307 307 306 305 304 305 305 304 304 303 303 303 303 304 304 305 304 303 302 302 302 300 297 294 293 294 294 294 294 295 297 298 299 299 300 300 300 300
320 319 319 318 316 314 313 312 311 310 309 308 308 307 306 306 306 306 305 305 305 307 308 308 308 307 307 305 303 302 304 304 303 302 302 302 303 304 304 304 304 304 304 302 300 298 297 294 293 294 294 295 295 295 296 297 298 299 299 300 300 300 300
319 319 318 317 315 314 312 311 309 309 308 307 306 305 304 304 304 304 304 305 306 307 308 308 307 307 307 304 300 300 303 303 302 302 302 303 303 304 303 303 304 303 303 302 298 296 296 296 295 294 294 295 297 297 297 298 298 299 299 300 300 300 300
319 318 317 316 315 313 311 309 308 308 307 305 304 303 303 303 303 304 305 307 307 307 307 307 306 307 307 304 300 298 299 302 302 302 302 303 303 303 303 303 303 303 303 302 299 298 299 299 297 294 294 296 298 298 298 299 299 299 300 300 300 300 299
Wind_Speed
27 25 24 23 21 20 21 21 19 19 17 14 12 11 9 7 7 11 9 5 8 11 10 12 12 11 11 12 11 11 11 11 10 11 13 11 10 9 8 7 7 7 9 8 6 6 4 3 4 5 5 5 4 5 5 4 2 4 6 5 4 3 4
26 24 23 21 21 22 22 22 20 19 16 13 11 10 9 8 9 12 10 8 10 13 13 13 13 12 12 11 11 11 11 12 13 14 14 10 10 11 9 9 9 10 10 9 7 6 4 3 3 4 7 7 5 6 6 4 1 3 5 5 4 2 3
25 25 24 23 24 25 24 23 21 18 16 15 14 11 10 10 11 13 12 11 12 13 13 13 12 12 13 12 12 12 12 14 15 15 14 12 12 11 10 10 10 10 8 8 8 8 7 5 3 2 7 10 7 6 8 6 2 1 3 3 2 2 3
27 28 28 27 27 27 25 23 21 19 18 18 16 12 11 12 13 14 13 11 11 12 12 12 12 12 13 13 13 13 13 14 14 14 14 13 13 13 12 12 13 12 11 10 10 10 9 6 4 1 3 7 8 6 6 7 5 2 3 3 4 5 4
29 30 31 30 29 28 25 23 22 21 19 18 16 14 14 14 14 14 13 12 11 11 11 11 12 13 14 14 15 15 15 14 14 14 14 14 13 14 15 14 15 14 14 12 11 11 11 9 7 4 3 1 6 7 6 6 6 4 6 5 6 5 2
31 31 32 31 31 29 26 24 24 24 22 20 17 16 15 14 14 14 14 13 13 12 12 12 13 14 15 16 16 16 16 15 15 15 15 15 14 14 15 14 14 14 14 12 11 11 11 10 10 6 4 4 2 3 6 7 6 2 3 3 6 5 5
32 31 31 32 31 29 27 25 25 24 23 21 19 16 14 13 14 14 14 14 14 14 14 14 14 15 15 16 16 17 17 16 16 16 16 16 15 15 14 14 14 14 13 12 11 12 12 11 13 10 5 4 6 5 2 5 5 1 5 6 8 7 9
32 31 31 31 30 29 28 26 25 23 20 20 19 16 14 15 15 14 13 14 15 14 14 15 15 15 15 16 16 16 17 16 17 17 17 16 15 15 14 15 15 14 13 13 13 14 14 14 14 13 9 5 4 7 7 2 2 5 9 10 8 7 12
32 31 30 29 28 28 29 27 24 22 20 18 17 15 15 16 16 15 14 14 15 15 15 15 16 15 15 16 16 16 17 16 16 17 17 16 15 14 14 14 14 14 13 13 15 15 14 14 14 13 13 11 6 3 5 5 3 4 10 14 11 10 15
32 31 30 29 28 28 29 27 24 21 20 18 17 16 17 18 17 16 14 15 16 16 16 15 15 15 15 16 17 17 17 16 16 17 16 16 15 15 14 13 14 15 13 13 14 14 13 13 13 12 13 13 10 5 2 3 3 3 8 14 12 13 18
32 31 30 30 29 29 29 26 24 22 20 18 19 20 19 18 16 14 14 15 16 16 15 15 15 16 17 18 18 17 17 17 17 18 16 16 15 14 14 15 15 15 13 13 12 12 12 13 12 12 10 10 11 8 4 2 2 3 9 14 13 15 20
32 31 31 31 30 30 29 27 25 23 21 20 22 23 20 17 16 14 15 17 17 16 16 16 17 17 18 18 18 17 17 16 17 17 15 15 15 14 16 16 15 14 13 12 11 11 11 12 11 11 9 8 9 8 6 3 1 3 9 15 16 17 21
32 31 31 31 31 30 29 27 26 24 22 22 23 22 19 18 17 17 18 18 18 17 17 17 18 18 17 18 17 17 16 15 16 16 16 15 15 14 15 15 13 12 11 10 10 9 10 10 9 8 8 8 7 6 6 5 3 7 11 13 16 19 21
32 31 32 32 31 30 29 27 26 26 24 21 22 21 19 18 18 18 19 19 19 19 18 18 18 17 18 18 16 15 15 15 16 17 16 14 13 12 13 14 13 12 11 9 9 9 9 10 8 7 7 7 6 6 6 6 6 10 14 15 17 20 22
32 32 33 33 31 30 29 28 28 27 24 22 22 21 20 19 18 19 20 19 19 19 18 18 18 18 18 18 17 15 15 15 17 17 15 14 12 11 12 12 13 12 9 7 7 8 9 9 9 7 6 5 6 7 7 8 8 9 14 18 20 21 23
33 34 34 33 31 30 30 29 29 27 24 24 22 20 20 21 19 19 20 20 20 20 19 18 18 18 18 18 18 16 14 15 17 17 16 15 13 12 11 12 12 11 9 7 7 7 8 7 8 7 5 4 4 6 6 7 9 10 14 19 21 22 24
34 35 35 33 32 31 31 31 30 27 24 24 22 21 21 21 20 20 21 21 20 20 20 19 18 18 18 19 18 16 15 16 16 15 15 14 13 11 11 12 11 9 8 8 7 6 7 6 6 5 4 3 3 5 6 6 8 11 13 17 20 21 23
34 36 35 34 33 32 32 32 30 27 24 23 23 23 23 22 21 22 22 21 21 21 21 20 19 19 19 18 17 16 16 15 14 14 13 13 12 11 11 11 10 8 7 7 5 4 5 5 4 4 3 3 3 5 6 6 7 10 12 15 18 20 21
35 36 35 34 34 34 33 32 30 28 26 25 25 25 25 23 22 23 23 22 22 22 21 21 20 19 19 18 16 16 15 15 15 14 13 13 12 11 10 10 9 8 7 6 5 3 3 5 4 2 2 3 4 5 6 8 8 9 11 14 16 19 22
35 35 35 36 35 34 32 32 31 30 28 27 27 27 26 24 24 24 23 23 23 22 22 21 20 20 20 18 17 16 16 16 16 15 14 13 12 11 10 10 9 8 7 5 3 1 2 4 4 1 2 4 5 7 9 10 10 10 12 14 16 18 20
36 35 35 36 35 33 33 32 31 30 28 27 28 28 26 26 25 24 23 23 23 22 22 22 21 21 21 19 18 18 17 17 17 16 14 13 12 11 10 9 8 7 6 5 2 1 2 3 2 1 3 5 6 8 9 10 11 12 13 15 17 18 19
36 35 35 36 35 34 33 32 31 29 28 28 28 27 26 27 26 25 25 24 23 22 23 23 22 23 22 20 19 19 17 17 16 16 15 14 12 11 10 9 7 5 4 4 3 3 4 4 3 3 4 5 6 8 10 11 12 13 13 15 16 18 19
36 35 36 35 35 34 33 32 31 30 28 29 28 27 27 27 27 27 26 26 25 25 24 24 24 23 21 20 20 19 18 17 17 16 16 15 13 12 11 9 6 3 2 4 5 4 3 3 3 3 4 5 7 9 11 13 15 15 15 15 16 18 19
36 35 35 35 35 34 33 32 31 30 29 29 29 29 29 28 28 28 28 28 28 27 27 26 24 20 19 20 20 19 18 17 17 16 15 15 14 13 11 9 6 4 2 3 5 4 1 1 2 3 3 3 5 9 12 14 16 16 16 16 17 19 19
36 35 35 35 35 34 33 32 31 30 30 30 30 29 29 30 29 29 30 30 29 28 28 26 21 18 20 21 19 18 18 17 17 16 15 14 14 13 12 9 7 5 2 3 4 3 2 1 2 4 4 3 4 8 10 12 15 16 16 16 18 20 21
35 35 35 35 35 34 33 32 32 31 31 31 31 30 30 31 29 29 31 31 29 29 26 21 18 19 21 21 18 18 18 17 16 16 15 14 13 13 13 11 9 7 4 3 3 2 3 3 5 7 6 3 4 7 8 10 12 12 13 14 16 19 20
35 34 34 34 34 34 33 32 32 32 32 32 32 30 31 31 30 29 31 31 29 27 22 19 19 21 20 20 19 19 17 16 15 15 14 14 13 14 14 13 11 8 6 5 5 5 5 5 7 7 4 2 5 7 7 8 8 8 10 11 14 17 20
35 35 34 34 34 34 33 32 32 32 33 33 32 31 31 31 30 29 30 30 27 24 20 20 22 22 21 20 20 19 17 17 16 14 14 14 14 15 17 15 11 9 8 9 9 8 7 7 8 6 3 2 4 5 6 6 7 10 12 12 13 17 20
35 35 35 34 33 33 33 32 32 33 33 32 31 31 30 30 30 29 29 28 26 22 21 23 23 22 22 21 22 20 16 16 18 16 14 14 13 14 16 14 10 9 10 12 11 9 8 8 8 6 5 4 3 3 4 5 8 11 11 11 13 17 19
35 35 35 35 33 32 31 32 33 33 33 31 30 30 30 29 28 28 28 26 25 23 23 24 24 23 23 21 23 22 16 16 18 17 14 14 14 15 15 14 11 10 11 12 11 9 9 9 8 7 7 5 2 1 2 5 7 8 7 9 12 13 15
37 36 35 35 34 32 31 33 34 35 35 34 32 31 31 29 28 28 26 25 24 24 24 24 23 24 23 22 23 23 19 15 15 14 13 14 15 14 13 14 14 14 13 12 11 11 10 10 9 7 5 3 3 3 3 4 5 5 6 7 9 11 13
38 38 36 35 33 32 32 34 35 35 35 34 31 30 30 29 29 28 26 24 24 24 24 24 23 24 24 23 24 25 22 17 14 12 12 13 13 13 14 15 15 16 15 14 13 12 11 10 9 7 5 3 4 4 3 4 5 7 8 10 12 14 15
38 38 37 34 33 33 33 33 34 33 32 32 31 30 29 29 29 28 26 25 24 24 24 24 25 25 23 24 26 28 27 22 17 13 13 13 14 14 15 17 17 16 16 16 15 13 11 10 9 8 6 4 4 4 3 3 5 7 10 13 15 16 15
36 35 35 34 32 32 33 33 33 32 31 31 30 29 28 28 28 28 27 26 24 23 24 25 27 26 23 24 28 31 31 26 19 15 15 16 17 17 17 18 19 18 17 17 17 16 14 11 10 9 7 5 4 4 4 5 6 9 11 13 16 16 14
33 34 35 34 33 32 32 33 33 32 32 31 30 30 28 28 28 27 26 26 26 25 24 25 27 26 24 25 28 31 32 29 21 17 16 17 18 20 20 19 19 18 17 16 16 16 14 12 10 9 7 5 4 4 5 7 9 11 12 14 16 15 12
34 35 35 35 35 33 32 32 32 32 32 30 30 29 28 28 27 27 26 26 27 26 25 25 25 24 25 26 28 30 32 31 25 19 16 15 16 18 19 19 19 19 17 15 14 13 12 11 10 9 7 5 4 4 6 8 10 12 13 15 17 13 10
34 35 35 36 35 33 32 31 31 31 30 29 28 28 28 28 28 28 27 26 26 26 25 24 23 23 25 27 28 29 32 32 27 21 17 14 13 14 15 17 19 20 18 15 14 13 12 11 10 9 8 7 6 7 8 9 11 12 14 16 17 12 8
Wind_Direction
162 159 162 162 163 166 165 166 166 163 160 160 164 166 172 177 172 165 166 176 174 176 181 179 180 180 174 170 169 172 167 163 169 164 158 166 171 158 151 147 129 130 145 146 165 172 148 176 206 206 199 191 187 177 168 196 270 11 39 51 54 45 21
164 163 164 162 165 166 165 166 167 164 163 164 162 160 165 164 157 159 162 167 171 179 185 181 183 185 181 173 166 165 158 151 151 150 143 139 145 148 146 148 137 128 120 103 116 140 111 124 179 202 200 204 221 204 188 203 214 46 41 41 45 38 1
165 165 165 164 167 168 168 169 167 165 163 162 158 153 158 161 157 160 165 166 170 180 185 185 187 187 186 181 172 168 157 146 144 143 137 125 123 130 137 141 130 118 111 84 72 82 81 91 128 193 202 200 215 219 211 217 217 52 11 3 348 305 303
167 167 166 166 167 169 172 172 171 168 162 159 159 155 155 159 162 167 169 165 168 176 182 187 187 180 177 175 169 165 157 149 146 143 136 127 121 118 118 120 112 102 97 82 68 74 79 80 96 95 223 217 233 251 234 227 228 264 298 310 313 294 286
172 171 170 168 169 171 173 173 173 172 165 159 158 156 155 157 159 165 171 166 161 164 168 170 170 165 161 160 160 159 155 149 148 146 137 131 127 120 113 110 108 102 94 90 83 82 80 80 96 96 64 189 241 261 263 235 225 263 285 297 322 314 304
176 175 174 172 172 174 174 173 173 172 168 163 157 150 154 164 162 161 166 164 157 155 156 154 154 155 154 153 152 150 148 144 143 143 135 130 127 121 117 113 111 106 97 95 93 87 84 79 75 66 46 59 94 254 259 232 216 265 326 354 14 28 35
178 178 177 175 175 177 178 176 172 170 169 169 166 157 154 165 168 164 163 161 158 155 155 154 152 153 153 150 148 145 142 140 139 137 131 127 124 121 120 116 110 106 100 98 95 86 80 76 66 52 33 38 53 42 344 221 201 79 47 41 38 37 11
180 180 180 180 180 181 181 179 174 172 169 169 172 168 162 165 168 167 165 161 160 158 156 156 154 153 152 148 146 142 139 139 138 133 129 127 123 120 120 116 110 107 103 99 95 86 78 75 69 61 60 63 45 30 27 38 99 59 34 15 12 7 351
181 180 181 182 182 182 181 179 175 173 171 167 167 168 170 175 172 166 164 163 163 159 156 156 154 152 151 146 143 139 136 140 138 131 128 124 119 118 118 117 111 105 103 104 98 91 84 78 72 65 64 71 76 35 9 8 13 39 19 8 2 349 346
181 181 182 181 181 181 181 179 175 172 170 169 168 168 169 172 170 164 161 161 163 161 157 157 154 151 149 143 140 137 136 139 137 131 128 122 118 119 117 114 110 102 101 106 102 95 89 83 76 69 62 64 73 84 67 359 328 313 352 1 359 340 341
183 183 183 181 179 179 179 178 175 171 170 171 171 169 166 165 164 162 160 158 160 160 159 158 153 150 149 144 140 137 136 139 135 130 130 127 124 123 117 109 104 100 97 99 101 98 92 87 81 74 63 57 60 71 87 34 322 310 335 344 347 340 339
181 182 181 180 178 178 177 176 174 171 170 172 172 171 170 168 164 160 158 158 159 159 158 155 153 153 152 147 143 140 140 142 137 132 132 129 123 119 114 106 100 97 95 94 96 96 90 84 78 75 70 59 54 54 52 34 314 297 327 333 337 341 341
180 181 180 178 177 177 177 176 174 171 169 170 172 173 173 170 166 161 160 160 160 159 156 155 156 157 153 148 146 145 145 145 140 134 131 125 121 121 118 112 108 108 108 105 105 104 95 85 79 77 73 65 57 41 21 17 318 300 319 332 335 340 344
179 179 178 177 177 177 177 175 172 170 170 170 173 174 173 170 168 165 164 164 164 161 158 159 160 158 152 148 146 145 146 147 140 132 128 126 127 132 130 124 121 122 122 117 116 118 105 89 84 82 73 63 53 34 11 7 346 316 320 335 338 340 345
178 177 175 175 175 176 175 173 171 171 171 172 174 175 174 172 170 168 167 168 166 163 162 162 160 158 154 148 145 146 148 147 139 133 132 133 134 136 139 136 130 127 123 112 112 123 114 90 79 79 75 61 45 37 20 5 359 333 322 332 339 342 345
176 176 175 173 173 174 174 172 172 171 169 170 174 175 174 173 171 171 171 170 168 166 165 161 158 159 157 150 148 150 150 146 142 141 140 138 138 138 136 135 132 127 122 113 107 120 123 97 78 79 71 52 32 20 9 2 1 347 328 330 339 344 345
175 174 174 173 173 174 175 176 177 174 170 171 174 175 174 173 172 172 173 172 171 170 166 161 161 164 160 153 152 153 151 147 147 149 149 145 143 141 137 133 129 129 133 129 115 115 127 112 85 78 53 27 11 357 358 8 8 357 342 336 339 345 347
175 174 173 172 172 175 177 179 180 177 173 175 177 177 175 174 174 175 175 175 174 173 169 165 167 168 161 155 156 157 153 150 150 151 151 150 147 144 141 137 134 139 149 148 133 124 135 128 104 83 49 8 351 350 357 10 9 1 353 346 342 346 349
175 173 172 171 172 174 177 180 179 175 173 174 177 176 175 175 177 178 178 177 176 175 171 170 170 166 160 158 159 157 153 152 155 153 150 150 150 149 147 146 149 155 159 158 154 155 156 149 143 111 30 357 353 3 14 16 11 3 356 350 346 346 348
174 172 171 171 172 174 176 177 177 176 175 175 176 175 174 176 179 181 180 179 179 177 173 171 171 165 161 162 161 157 157 159 159 156 153 153 153 155 158 160 164 168 170 171 170 170 175 176 182 211 9 19 21 24 24 17 9 2 356 349 345 343 342
173 170 170 171 173 175 175 175 177 176 176 176 177 176 175 177 180 182 181 180 181 179 174 174 172 166 164 165 163 162 164 165 161 158 159 162 159 161 170 175 177 180 189 202 213 129 133 151 163 116 50 43 33 22 13 3 355 352 349 341 338 336 336
172 170 169 171 172 174 174 175 176 174 174 177 177 177 177 179 180 181 182 182 182 179 177 177 173 169 169 169 168 170 170 167 164 163 165 165 164 169 176 180 183 193 209 211 198 143 124 115 104 86 61 40 18 2 350 341 338 338 336 330 327 331 333
170 171 172 172 172 173 174 175 175 172 173 177 178 178 180 181 181 182 183 183 182 180 179 178 175 175 175 174 173 174 173 169 166 167 167 165 166 175 181 183 191 195 179 179 173 153 126 95 65 44 31 11 353 339 328 326 328 327 322 318 320 327 328
170 172 173 173 174 175 174 174 173 172 174 177 179 180 182 182 183 185 185 183 182 180 180 179 179 179 177 175 176 177 174 172 170 171 174 172 172 181 188 192 202 200 169 186 192 185 156 59 26 356 345 341 332 324 317 315 318 317 313 310 316 321 318
171 173 173 174 176 176 174 173 173 173 174 177 179 182 184 184 184 186 185 184 182 180 181 183 182 180 179 178 178 179 178 178 176 177 181 179 178 188 196 198 201 208 225 217 199 199 223 267 319 317 316 317 324 326 320 314 312 312 310 308 310 315 316
172 173 174 175 176 175 174 173 174 174 175 177 180 183 185 184 186 187 185 183 180 180 183 187 184 182 183 181 179 180 183 184 182 183 188 189 189 194 200 201 199 209 231 214 185 218 250 270 309 316 315 317 334 340 336 328 322 317 313 308 304 311 319
173 174 176 176 175 175 174 173 174 175 175 178 181 184 184 185 186 186 184 182 180 182 185 186 185 186 185 182 181 183 185 187 187 189 193 197 199 201 203 205 203 213 228 213 210 237 250 273 307 313 310 320 341 347 341 336 342 344 337 326 311 313 325
173 174 176 177 176 175 175 174 174 175 177 180 183 184 184 185 185 182 182 182 182 183 184 184 187 188 186 184 185 182 183 189 192 194 197 204 213 212 208 206 208 221 227 214 219 239 249 272 297 298 280 295 329 347 349 344 352 352 346 341 330 323 327
172 174 177 177 176 176 175 174 173 175 178 180 183 184 183 184 184 181 181 184 185 185 187 188 190 190 188 188 187 184 185 190 191 195 201 206 210 203 198 199 204 217 220 213 219 237 249 269 289 283 268 281 308 351 359 339 336 342 342 339 335 327 324
173 175 177 178 177 177 175 174 174 177 179 179 181 184 184 184 185 183 183 187 189 188 189 193 194 193 193 192 188 188 190 186 188 198 203 200 195 188 190 199 204 209 212 211 220 238 252 267 281 275 272 283 277 264 324 326 328 342 344 334 331 328 329
174 176 177 178 178 177 174 173 177 181 183 180 181 183 185 186 187 185 185 187 190 191 192 194 195 196 199 199 195 194 193 182 183 197 200 196 199 200 205 212 214 216 220 221 229 241 251 263 269 266 269 288 278 265 300 335 347 6 2 346 343 341 345
176 177 179 180 179 176 174 174 178 183 184 181 181 183 186 188 187 185 186 188 191 194 193 193 195 197 201 205 203 200 197 186 181 194 199 200 208 214 215 217 218 221 222 224 229 236 245 257 261 257 257 282 296 296 322 338 343 352 346 342 343 342 348
179 178 179 179 177 176 175 175 176 179 180 179 180 184 188 189 188 189 191 191 193 195 194 194 196 197 202 209 207 203 201 194 187 196 206 210 212 212 212 216 220 222 223 226 229 233 245 258 258 252 251 267 289 306 325 315 319 328 327 330 336 338 347
179 177 178 178 176 175 175 176 176 176 175 175 178 182 186 188 189 191 193 195 197 199 201 200 198 197 203 210 208 205 203 198 192 198 209 214 214 213 213 215 218 222 227 233 237 240 249 260 259 252 253 260 275 299 304 297 307 316 317 323 330 334 347
177 177 179 178 176 175 177 178 178 175 173 174 177 180 182 185 188 190 192 197 203 205 205 204 200 199 205 208 208 207 204 199 198 203 210 215 216 216 217 217 218 224 231 236 239 241 244 251 253 252 254 259 267 288 293 291 300 308 311 318 322 327 348
178 180 180 179 177 176 176 176 175 174 174 175 177 180 182 185 187 188 191 197 204 204 200 198 200 205 208 207 207 207 204 201 202 206 207 209 212 213 217 221 223 227 231 232 230 228 230 241 255 259 254 249 255 273 283 287 294 301 307 313 313 318 349
178 179 179 178 177 175 173 172 172 174 176 176 177 180 183 184 184 184 185 188 192 194 194 196 202 209 210 208 207 207 206 203 204 208 207 205 210 214 220 226 229 229 229 226 220 221 230 247 263 266 254 245 249 263 271 275 284 293 300 304 306 311 350